Preview of NWS' New Version of Forecast
This preview is not operational and should not be used for support decisions.
Latest weather observations around

Hawthorne, Hawthorne Municipal Airport (KHHR)

Using English Units (Switch to International System of Units)
Date/ Time (PDT) Wind (mph) Vis. (mi) Weather Sky Cond. Temp (°F) Rel. Humidity Wind Chill (°F) Heat Index (°F) Pressure Precip. (in)
Air Dwpt 6 hour Altimeter (inHg) Sea level (inHg) 1 hr 3 hr 6 hr
Max Min
Apr 20 09:14 SSE 3 10 Light Rain BKN024 59 48     67%     30.14   0    
Apr 20 09:02 S 3 10 Partly Cloudy SCT026 SCT031 58 48     70%     30.15        
Apr 20 08:53 SSE 5 10 Mostly Cloudy BKN026 57 48     72%     30.15 30.14 0    
Apr 20 07:53 ESE 7 10 Cloudy OVC019 56 47     72%     30.14 30.14      
Apr 20 06:53 E 8 10 Mostly Cloudy BKN016 55 47     74%     30.13 30.13      
Apr 20 06:07 E 5 10 Mostly Cloudy SCT013 BKN018 54 49     83%     30.11        
Apr 20 05:53 E 7 10 Partly Cloudy FEW010 SCT017 54 49     83%     30.11 30.11      
Apr 20 05:51 E 6 10 Partly Cloudy SCT010 54 48     82%     30.11        
Apr 20 05:42 E 7 10 Mostly Cloudy BKN010 54 49     83%     30.11        
Apr 20 05:20 ENE 5 10 Mostly Cloudy BKN009 BKN016 54 50     86%     30.11        
Apr 20 05:00 E 6 10 Partly Cloudy FEW009 SCT014 54 50     86%     30.1        
Apr 20 04:53 E 5 10 Mostly Clear FEW014 54 50     86%     30.1 30.1      
Apr 20 03:53 ENE 3 10 Clear CLR 54 48     80%     30.09 30.09      
Apr 20 02:53 Calm 10 Clear CLR 54 49     83%     30.08 30.08      
Apr 20 01:53 ESE 3 10 Clear CLR 55 49     80%     30.06 30.06      
Apr 20 00:53 Calm 10 Clear CLR 55 49     80%     30.07 30.06      
Apr 19 23:53 ESE 5 10 Clear   56 50     80%     30.05 30.04      
Apr 19 22:53 Calm 10 Clear CLR 56 50     80%     30.03 30.03      
Apr 19 21:53 W 8 10 Clear CLR 57 50     77%     30.04 30.03      
Apr 19 20:53 WSW 8 10 Clear CLR 57 49     74%     30.02 30.02      
Apr 19 19:53 WSW 13 10 Clear CLR 58 48     70%     30.01 30.01      
Apr 19 18:53 WSW 11 10 Clear CLR 59 48     67%     30.01 30.01      
Apr 19 17:53 W 15 10 Clear CLR 60 47     62%     30.01 30.01      
Apr 19 16:53 W 16 10 Clear CLR 61 45     56%     30.02 30.01      
Apr 19 15:53 W 16 10 Clear CLR 61 42     50%     30.03 30.02      
Apr 19 14:53 WSW 13 10 Clear CLR 61 43     52%     30.05 30.04      
Apr 19 13:53 WSW 15 10 Clear CLR 62 43     50%     30.05 30.05      
Apr 19 12:53 WSW 10 10 Clear CLR 60 42     51%     30.05 30.05      
Apr 19 11:53 WNW 8 10 Partly Cloudy SCT029 58 43     57%     30.06 30.06      
Apr 19 11:46 W 8 10 Mostly Cloudy BKN028 58 44     60%     30.06        
Apr 19 10:53 Calm 10 Mostly Cloudy BKN032 56 43     62%     30.06 30.06     0
Apr 19 09:53 W 5 10 Partly Cloudy FEW024 FEW031 SCT041 54 45     72%     30.06 30.05      
Apr 19 08:53 S 3 10 Mostly Clear FEW100 53 46     77%     30.04 30.03 0    
Apr 19 07:53 E 6 10 Light Rain SCT050 BKN070 OVC085 52 44     74%     30.02 30.02 0 0  
Apr 19 07:43 Calm 4 Light Rain BKN048 OVC070 51 47     86%     30.03   0    
Apr 19 06:53 W 14 10 Cloudy OVC070 54 41     61%     30.03 30.02      
Apr 19 05:53 SW 3 10 Mostly Cloudy BKN075 53 44     71%     30.01 30.01      
Apr 19 04:53 W 8 10 Clear CLR 53 44     71%     30.01 30.01      
Apr 19 03:53 6 10 Clear CLR 53 44     71%     30.01 30.01      
Apr 19 02:53 W 8 10 Mostly Cloudy BKN033 53 45     74%     30.01 30.01      
Apr 19 02:48 W 6 10 Mostly Cloudy BKN031 54 45     71%     30.01        
Apr 19 02:23 WNW 7 10 Mostly Cloudy BKN029 53 45     74%     30.01        
Apr 19 01:53 W 7 10 Clear CLR 54 45     72%     30.01 30.01      
Apr 19 01:28 W 6 10 Partly Cloudy SCT025 54 44     69%     30.02        
Apr 19 00:53 W 5 10 Cloudy OVC025 55 46     72%     30.02 30.01      
Apr 19 00:31 W 5 10 Mostly Cloudy BKN025 55 46     72%     30.01        
Apr 19 00:14 WSW 5 10 Partly Cloudy SCT023 56 48     75%     30.02        
Apr 18 23:53 W 6 10 Mostly Cloudy BKN020 56 48     75%     30.02 30.01      
Apr 18 23:09 WSW 5 10 Mostly Cloudy BKN018 56 48     75%     30.01        
Apr 18 21:53 SW 5 10 Clear CLR 57 46     67%     30 30      
Apr 18 20:53 WSW 10 10 Clear CLR 57 50     77%     30 30      
Apr 18 19:53 W 10 10 Clear CLR 58 46     65%     29.99 29.99      
Apr 18 18:53 WSW 13 10 Clear CLR 59 49     69%     29.99 29.99      
Apr 18 17:53 W 13 10 Clear CLR 63 46     54%     29.98 29.98      
Apr 18 16:53 W 13 10 Clear CLR 65 46     50%     29.99 29.99      
Apr 18 15:53 WSW 11 10 Clear CLR 66 49     54%     30.01 30      
Apr 18 14:53 SW 13 10 Clear CLR 66 46     48%     30.03 30.03      
Apr 18 13:53 WSW 16 10 Clear   66 47     50%     30.06 30.06      
Apr 18 11:53 W 10 10 Clear CLR 66 50     56%     30.06 30.06      
Apr 18 10:53 ESE 7 10 Clear CLR 66 43     43%     30.07 30.06      
Apr 18 09:53 S 3 10 Clear CLR 64 37     37%     30.06 30.05      
Apr 18 08:53 SE 6 10 Clear CLR 61 38     42%     30.05 30.05      
Apr 18 07:53 E 6 10 Clear CLR 58 41     53%     30.05 30.04      
Apr 18 06:53 Calm 10 Clear CLR 55 37     51%     30.04 30.04      
Apr 18 05:53 Calm 10 Clear CLR 53 40     61%     30.03 30.03      
Apr 18 04:53 Calm 10 Clear CLR 54 42     64%     30.04 30.03      
Apr 18 03:53 Calm 10 Clear CLR 54 38     55%     30.03 30.03      
Apr 18 02:53 Calm 10 Clear CLR 55 40     57%     30.03 30.03      
Apr 18 01:53 Calm 10 Clear CLR 56 43     62%     30.04 30.04      
Apr 18 00:53 Calm 10 Clear CLR 57 43     59%     30.04 30.03      
Apr 17 23:53 Calm 10 Clear CLR 57 47     69%     30.04 30.04      
Apr 17 22:53 WSW 5 10 Clear CLR 59 42     53%     30.05 30.04      
Apr 17 21:53 Calm 10 Clear CLR 61 38     42%     30.05 30.05      
Apr 17 20:53 WNW 6 10 Clear CLR 61 41     48%     30.05 30.05      
Apr 17 19:53 WNW 6 10 Clear CLR 62 41     46%     30.05 30.04      
Apr 17 18:53 WNW 7 10 Clear CLR 63 38     40%     30.06 30.06      
Apr 17 17:53 W 13 10 Clear CLR 64 36     35%     30.08 30.07      
Apr 17 16:53 W 17 10 Clear CLR 66 31     27%     30.08 30.08      
Apr 17 15:53 W 11 10 Clear CLR 65 30     27%     30.1 30.1      
Apr 17 14:53 WNW 10 10 Clear CLR 64 34     33%     30.13 30.13      
Apr 17 13:53 WNW 10 10 Clear CLR 64 36     35%     30.16 30.16      
Apr 17 12:53 W 13 10 Clear CLR 64 38     38%     30.17 30.17      
Apr 17 11:53 SSW 6 10 Clear CLR 64        %     30.19 30.19      
Apr 17 10:53 6 10 Clear CLR 63 31     30%     30.19 30.19      
Apr 17 09:53 NNW 6 10 Clear CLR 61 33     35%     30.18 30.18      
Jun 12 02:53 E 3 10 Clear CLR 59 52     78%     29.97 29.97      
Jun 11 14:53 SW 11 10 Partly Cloudy FEW024 SCT029 69 54     59%     29.92 29.92      
Jun 11 03:53 SE 6 10 Cloudy OVC031 62 56     80%     29.86 29.85 0    
Jun 11 03:44 SE 6 10 Cloudy OVC031 62 56     80%     29.86   0    
Jun 10 21:53 WSW 7 10 Mostly Cloudy BKN025 64 56     75%     29.88 29.87      
Jun 10 20:15 WSW 8 10 Mostly Cloudy BKN025 65 55     70%     29.85        
Jun 10 12:53 S 9 10 Mostly Clear FEW029 69 56     63%     29.88 29.88      
Jun 10 08:53 SE 7 10 Cloudy OVC027 64 56     75%     29.9 29.89      
Jun 09 18:53 WSW 15 10 Mostly Cloudy BKN011 BKN014 66 61     84%     29.89 29.89      
Jun 09 00:53 SE 3 10 Clear CLR 61 57     87%     29.95 29.94      
Jun 08 08:53 WSW 7 10 Cloudy BKN011 OVC015 62 59     90%     30.01 30.01 0    
Jun 08 07:53 W 6 10 Cloudy SCT008 OVC015 62 59     90%     30 30      
Jun 08 01:04 WSW 6 10 Cloudy BKN007 OVC012 61 59     93%     29.99        
Jun 08 00:27 WSW 3 9 Cloudy SCT006 OVC013 61 60     97%     29.99   0    
Jun 06 09:53 S 5 9 Cloudy OVC014 64 59     84%     29.95 29.95